Dewpoint
52 51 50 50 50 51 51 51 51 51 51 51 51 50 50 51 50 44 42 47 48 46 42 30 29 30 31 30 29 27 22 21 21 20 19 23 23 23 23 24 25 28 39 42 37
50 49 50 50 50 50 50 50 50 50 50 51 50 50 50 50 46 41 45 48 46 44 35 31 28 32 27 28 30 25 22 18 21 23 22 24 24 24 22 23 23 23 32 31 35
49 50 50 50 50 49 49 49 49 50 50 50 50 50 49 48 35 38 48 45 43 42 38 36 34 32 28 28 26 27 23 24 24 24 25 25 24 24 22 21 25 23 25 29 33
50 49 49 49 49 49 49 49 50 50 50 49 49 49 49 44 1 36 46 45 44 41 33 33 30 26 26 24 27 24 25 25 26 25 25 24 23 22 21 20 23 24 25 28 33
49 49 49 49 49 49 48 49 50 49 48 49 48 49 42 27 27 38 45 44 38 36 31 30 27 28 26 27 27 25 24 24 25 28 27 25 23 22 21 21 23 24 26 28 29
49 49 48 49 49 48 49 50 49 48 48 48 47 48 38 14 34 39 37 36 35 35 32 31 27 29 27 27 26 27 27 27 28 27 27 25 24 23 22 22 21 23 25 27 27
49 48 49 49 49 49 50 50 47 49 48 46 47 45 37 19 39 40 36 32 33 33 31 32 32 29 28 27 30 29 27 24 25 24 22 22 21 22 23 23 24 24 22 24 27
49 48 49 49 49 49 50 48 46 48 46 48 49 42 25 37 40 39 34 31 32 33 34 32 33 31 29 30 29 27 25 21 20 22 22 21 14 17 18 17 17 18 20 21 22
48 49 49 48 49 50 47 45 43 42 39 48 41 36 21 34 25 28 33 30 31 33 33 31 33 29 29 26 23 26 19 19 19 22 24 22 17 20 21 21 20 21 20 21 23
48 49 48 48 49 47 45 42 37 36 33 40 33 23 20 19 28 31 32 32 31 30 26 26 29 27 27 25 13 16 18 19 19 21 21 23 21 21 22 22 22 22 21 19 20
48 48 48 48 49 44 40 29 27 20 30 24 24 26 26 29 33 27 28 29 27 23 19 22 22 19 19 23 25 24 22 20 21 22 24 24 24 25 25 23 22 22 22 18 17
48 48 47 48 46 43 38 34 32 32 28 30 32 32 33 34 27 23 28 23 23 19 22 22 19 19 22 23 22 23 23 21 20 21 22 22 21 21 22 23 22 22 22 20 17
48 48 47 48 45 40 37 36 40 38 29 26 29 30 29 24 22 21 25 24 21 20 19 19 19 21 18 20 21 22 22 20 20 22 24 23 21 21 22 23 23 23 23 22 17
47 48 47 46 34 37 35 38 40 35 16 11 14 20 21 25 17 25 26 24 22 19 21 21 22 18 18 20 24 20 21 23 23 23 15 21 12 14 16 18 21 22 23 24 18
47 47 47 43 36 33 35 38 39 27 -4 8 13 23 24 20 20 19 26 23 20 20 20 17 18 19 19 20 23 22 25 25 24 22 21 16 17 15 15 19 24 25 22 22 21
47 47 46 39 34 36 37 37 29 14 -8 9 16 17 19 23 21 23 22 25 24 22 23 20 21 23 24 21 22 25 25 23 24 23 12 14 16 15 19 21 20 24 26 29 20
48 46 43 38 34 37 37 28 17 6 8 7 15 18 19 19 19 20 19 19 18 9 13 16 17 21 26 21 22 22 18 9 3 7 8 15 18 19 18 14 20 22 23 25 29
46 43 42 39 37 36 26 21 -2 -1 1 13 19 18 15 19 18 19 18 16 21 21 15 9 7 18 23 22 22 23 20 14 2 9 11 16 17 23 14 14 22 22 21 24 29
41 37 37 39 37 31 24 10 3 5 11 19 18 10 11 16 19 18 17 16 21 25 16 13 10 20 22 25 21 17 14 15 13 15 12 16 12 18 13 13 16 20 28 27 27
36 33 32 36 32 24 22 8 3 16 20 20 12 14 6 13 15 17 16 16 20 24 25 21 12 16 19 24 22 17 14 6 14 5 3 16 10 5 10 11 14 30 25 23 22
32 26 29 33 26 23 13 -1 11 18 20 19 12 15 14 14 18 16 17 19 22 24 25 25 17 13 19 16 18 15 10 12 14 14 8 8 6 15 12 12 14 32 33 35 36
28 22 30 27 21 5 8 7 21 20 23 24 23 21 12 14 11 17 17 19 23 26 21 26 19 11 10 19 20 18 15 14 7 11 11 12 9 17 14 13 19 30 33 34 35
24 26 31 25 15 10 10 19 23 20 20 21 21 23 16 12 11 14 18 20 22 23 24 25 16 7 9 18 17 18 17 15 17 14 6 2 4 16 13 12 15 24 29 31 32
25 22 25 25 23 15 13 10 12 22 22 22 23 22 13 8 17 11 19 21 22 26 26 24 19 17 10 12 18 14 15 13 9 0 5 6 4 8 8 8 11 18 25 27 28
26 19 16 14 16 22 19 20 18 13 23 22 19 15 13 9 6 6 17 19 21 25 22 24 11 14 12 14 20 18 15 13 8 8 4 7 5 8 8 8 11 16 21 21 23
24 23 20 13 20 21 23 17 17 17 18 16 10 13 15 11 13 8 18 19 20 22 21 22 10 10 10 14 20 17 17 14 11 9 9 10 8 14 12 11 9 12 14 16 19
30 29 26 23 22 16 17 14 14 18 16 18 19 19 14 17 20 19 19 22 23 22 20 19 20 14 8 12 13 10 16 15 13 11 9 2 8 13 9 7 7 8 11 12 15
Lifted_Index
13 13 13 13 13 13 13 13 13 13 13 12 12 12 12 12 13 13 12 11 11 13 14 16 16 15 14 14 13 12 11 9 10 11 12 12 12 11 10 8 7 6 6 7 7
13 13 13 13 13 13 13 13 13 13 13 13 12 12 12 12 13 13 12 11 11 13 14 15 15 14 13 13 12 11 10 9 10 11 12 12 12 12 11 9 8 6 6 7 7
13 14 14 14 14 13 13 13 13 13 13 13 12 12 12 12 12 12 11 11 11 12 13 14 13 13 12 11 10 9 8 8 9 9 10 11 12 12 12 11 9 8 7 8 7
14 14 14 14 14 14 14 13 13 13 13 12 12 12 13 12 12 12 11 10 11 11 11 11 11 10 9 8 8 7 7 8 8 8 8 9 9 11 12 12 11 10 10 9 8
14 14 14 14 14 14 14 13 13 13 13 12 12 13 13 12 12 12 11 10 10 10 9 9 9 8 8 7 7 7 8 8 8 8 8 7 8 9 10 12 12 12 11 10 10
14 14 14 14 14 14 13 13 13 13 12 12 12 13 13 12 12 12 11 10 10 9 8 8 8 8 8 8 8 8 9 9 8 7 7 6 7 7 8 9 10 11 12 11 11
14 14 14 14 14 14 13 13 13 13 12 12 12 13 13 12 12 11 11 11 10 10 9 9 9 9 8 8 9 8 8 8 8 7 6 5 5 6 6 6 7 9 11 11 12
14 14 14 14 14 13 13 14 14 13 13 12 12 12 13 13 12 11 11 11 11 11 10 10 9 9 9 8 8 8 7 6 6 6 5 4 4 5 5 4 5 7 9 10 11
14 14 14 14 14 13 14 15 15 14 14 13 13 13 13 13 13 12 12 12 11 11 11 10 10 9 8 7 6 6 5 4 5 4 4 3 4 4 4 3 3 5 7 9 10
14 14 14 14 14 14 15 15 15 15 14 14 13 13 13 13 13 13 12 12 11 11 10 9 8 8 7 6 5 4 4 4 4 4 3 3 4 4 4 3 3 4 5 8 9
14 14 14 14 14 15 16 15 14 14 14 13 13 13 13 13 12 12 12 11 11 10 9 8 7 6 7 7 6 5 4 4 4 4 4 4 4 5 4 3 3 3 5 7 8
14 14 14 14 14 16 16 15 14 14 13 13 13 13 13 13 12 12 12 11 10 9 8 7 6 7 7 7 6 5 4 3 3 3 4 4 4 4 4 3 3 3 4 6 7
14 14 14 14 15 16 16 16 16 14 12 12 13 14 13 12 12 12 12 11 9 8 7 6 6 7 7 6 5 4 3 3 3 3 3 3 3 3 3 3 3 3 3 5 7
14 14 14 15 15 15 16 17 17 14 10 10 13 14 13 12 11 12 12 11 9 7 6 6 6 6 6 5 4 3 3 3 2 2 2 2 2 2 2 3 3 3 3 5 6
14 14 14 16 16 16 17 17 16 11 8 9 12 13 13 12 11 11 12 11 9 7 6 6 6 6 5 5 5 4 4 3 3 2 2 2 1 1 2 2 2 2 3 4 5
14 14 15 16 16 17 17 16 13 8 6 9 11 12 11 11 11 11 11 10 9 7 6 6 7 6 6 5 6 6 5 4 3 2 2 1 1 1 1 1 2 2 3 4 5
14 14 15 15 16 17 16 13 9 7 8 9 11 11 10 9 10 10 9 8 8 7 6 6 6 6 7 6 6 6 5 3 2 1 1 1 1 1 1 1 1 1 2 3 4
15 15 15 16 17 17 14 10 7 7 9 10 10 10 9 9 9 9 8 8 8 8 6 5 5 6 8 8 8 7 5 3 2 1 1 1 1 1 1 2 1 1 1 2 4
15 15 15 16 17 15 12 8 7 8 10 10 10 8 8 8 8 8 7 8 9 9 7 5 5 6 8 9 10 8 7 5 3 2 1 1 1 1 1 1 2 1 1 2 3
14 14 14 16 16 13 10 8 9 10 11 10 9 8 7 7 7 7 8 9 10 10 8 6 6 7 9 10 10 9 8 6 5 2 1 1 2 2 2 2 2 2 2 2 3
12 11 13 15 14 11 9 9 10 12 12 10 9 9 8 7 7 7 9 10 11 10 9 8 7 7 9 10 11 10 9 7 5 3 2 1 2 3 3 2 2 2 2 2 3
10 10 13 14 11 9 9 10 11 12 12 11 11 10 9 8 7 8 9 11 12 11 10 9 7 6 8 10 11 11 10 9 7 5 3 2 3 5 4 2 2 1 1 2 2
8 9 12 12 9 8 9 10 11 11 11 11 11 11 10 8 7 8 10 11 12 12 10 10 8 6 6 8 10 10 11 10 9 6 4 3 4 5 4 2 1 1 1 1 1
8 8 9 10 9 9 9 9 10 11 11 11 11 11 9 8 7 8 10 11 12 12 11 10 9 7 6 8 9 9 10 11 9 6 4 3 4 4 3 2 2 1 1 0 1
8 7 7 7 8 9 9 9 9 10 11 11 11 10 9 7 7 8 9 10 11 11 10 9 9 8 8 8 8 8 9 9 8 6 4 3 4 5 6 4 3 2 2 2 2
9 9 8 7 7 8 9 9 9 10 11 11 10 10 9 7 7 8 9 10 10 10 9 8 8 7 7 7 7 6 7 7 7 6 5 4 5 8 9 7 4 3 3 4 4
11 11 9 7 7 8 9 9 9 10 11 11 10 9 8 8 8 9 9 10 10 9 8 8 7 6 6 6 5 5 6 7 7 7 6 5 6 9 9 7 5 4 4 5 5